Terminal Aerodrome Forecast
Issued by NWS

Home | Current Version | Previous Version | Text Only | Print | Product List | Glossary On
Versions: 1 2 3 4 5 6 7 8 9 10 11 12 13 14 15 16
000
FTAK31 PAJN 291909 AAB
TAFAJN
TAF AMD
PAJN 291909Z 2919/3018 12012KT P6SM VCSH BKN035 BKN060
      TEMPO 2919/2922 -SHRA SCT020 OVC030
     FM292200 13012KT P6SM VCSH BKN060
     FM300500 10006KT P6SM BKN070
     FM301500 11010G20KT P6SM -RA SCT030 OVC040=

USA.gov is the U.S. government's official web portal to all federal, state and local government web resources and services.